串田彗星

144P/Kushida (2024)

English version
Home page
Updated on November 4, 2020

---------------------------------------------------------------------

・ プロフィール

・ 軌道要素

Epoch 2024 Jan. 11.0 TT = JDT 2460320.5
T 2024 Jan. 25.61155 TT                                 MPCW
q   1.3989287            (2000.0)            P               Q
n   0.13141508     Peri.  216.32676     -0.15943328     -0.98531922
a   3.8315330      Node   242.91930     +0.92113634     -0.12623439
e   0.6348906      Incl.    3.93168     +0.35508994     -0.11493875
P   7.50
From 2982 observations 1994 Jan. 7-2017 May 1, mean residual 0".6.
     Nongravitational parameters A1 = +0.74, A2 = +0.0097.

・ 星図

・ 光度変化

        m1 =  7.5 + 5 logΔ +  30 log r(t - 30)  [   ,-39]  (              〜2023年12月17日)
        m1 = -5.5 + 5 logΔ + 100 log r(t - 20)  [-39, 52]  (2023年12月17日〜2024年 3月17日)
        m1 =  6.0 + 5 logΔ +  25 log r          [ 52,   ]  (2024年 3月17日〜              )

---------------------------------------------------------------------

軌道要素はM.P.E.C. 2017-J52に掲載されたものです。
星図はステラナビゲータ Ver.10 (アストロアーツ) で作成したものです。
光度グラフはComet for Windowsで作成したものです。

---------------------------------------------------------------------

Copyright(C) Seiichi Yoshida (comet@aerith.net). All rights reserved.